Regional Weather Roundup
Issued by NWS

Home | Current Version | Previous Version | Graphics & Text | Print | Product List | Glossary On
Versions: 1 2 3 4 5 6 7 8 9 10 11 12 13 14 15 16 17 18 19 20 21 22 23 24 25 26 27 28 29 30 31 32 33 34 35 36 37 38 39 40 41 42 43 44 45 46 47 48 49 50
000
ASUS45 KBOU 240407
RWRCO

WEATHER ROUNDUP FOR COLORADO
NATIONAL WEATHER SERVICE DENVER/BOULDER CO
1000 PM MDT FRI JUN 23 2017

NOTE: "FAIR" INDICATES FEW OR NO CLOUDS BELOW 12000 FEET WITH NO
SIGNIFICANT WEATHER AND/OR OBSTRUCTIONS TO VISIBILITY.

COZ001>005-013-030-031-240500-
...NORTHWEST COLORADO...

CITY           SKY/WX    TMP DP  RH WIND       PRES   REMARKS
CRAIG          FAIR      57  38  48 CALM      30.22R
HAYDEN         FAIR      61  34  36 CALM      30.25R
MEEKER         FAIR      62  34  35 VRB3      30.22R
RABBIT EARS PA FAIR      50  28  43 NW5       30.52R
STEAMBOAT SPGS FAIR      58  35  41 CALM      30.27R
WALDEN         FAIR      50  28  43 NE7       30.37R
$$

COZ006>008-011-240500-
...WEST CENTRAL VALLEYS...

CITY           SKY/WX    TMP DP  RH WIND       PRES   REMARKS
GRAND JUNCTION FAIR      78  13   8 N8        30.04R
MONTROSE       FAIR      70  30  22 SE6       30.15R
EAGLE          FAIR      68  26  20 NE6       30.26R
RIFLE          FAIR      74  26  16 SW6       30.14R
DELTA          FAIR      78  17  10 NE9       30.08R
NUCLA          FAIR      73  18  12 E8        30.18R
$$

COZ017>023-064>068-240500-
...SOUTHWEST COLORADO...

CITY           SKY/WX    TMP DP  RH WIND       PRES   REMARKS
DURANGO        FAIR      72  13  10 CALM      30.18R
CORTEZ         FAIR      67  33  28 NE3       30.14R
PAGOSA SPRINGS FAIR      73   5   7 NW9       30.28R
TELLURIDE      FAIR      64  20  18 SE6       30.44R
WOLF CREEK PAS FAIR      54  10  17 W7G16     30.67R
$$

COZ009-010-012-014-032>034-037-058>063-240500-
...CENTRAL COLORADO...

CITY           SKY/WX    TMP DP  RH WIND       PRES   REMARKS
ASPEN          FAIR      56  31  38 S9        30.31R
BUENA VISTA    FAIR      50  44  79 SE10      30.39R
COPPER MTN     FAIR      52  23  32 NW8       30.63R
BERTHOUD PASS  FAIR      37  27  65 NW22G29   30.63S
COTTONWOOD PAS FAIR      50  41  71 CALM      30.47R
GUNNISON       FAIR      58  30  34 S7        30.29R
KREMMLING      NOT AVBL
LEADVILLE      FAIR      53  23  31 NE8       30.46R
MONARCH PASS   FAIR      52  18  25 NW12      30.72R
SALIDA         FAIR      53  46  78 SE15G26   30.44R
SUNLIGHT       FAIR      52  16  24 CALM      30.56R
WILKERSON PASS FAIR      39  32  75 E14       30.59R
$$

COZ069>075-240500-
...SAN LUIS VALLEY/SANGRE DE CRISTO MOUNTAINS...

CITY           SKY/WX    TMP DP  RH WIND       PRES   REMARKS
ALAMOSA        FAIR      56  44  64 SE10      30.27R
DEL NORTE      FAIR      68  18  15 W5        30.29R
LA VETA PASS   HVY SNOW  43  41  93 NE20      30.61R VSB<1/4
SAGUACHE       FAIR      63  19  19 CALM      30.29R
$$

COZ035-036-038>040-240500-
...NORTHERN COLORADO FRONT RANGE...

CITY           SKY/WX    TMP DP  RH WIND       PRES   REMARKS
DENVER INTL AP MOCLDY    57  46  66 SW5       30.33R
DMNS CITY PARK   N/A     54  47  76 SW2G9     30.33R
AURORA         PTCLDY    52  47  83 SW5       30.34R
FRONT RANGE AP MOCLDY    54  48  82 SW6       30.34R
ERIE MUNI ARPT CLOUDY    55  49  79 CALM      30.32R
BOULDER MUN AP FAIR      55  48  76 CALM      30.32R
CENTENNIAL     MOCLDY    51  47  86 S5        30.34R
BROOMFIELD     FAIR      54  46  76 CALM      30.34R
FORT COLLINS   FAIR      56  46  69 S6        30.32R
LONGMONT       CLOUDY    59  50  70 SW3       30.33R
$$

COZ041-046-047-076>085-087-088-240500-
...PIKES PEAK/PALMER DIVIDE AND SOUTHERN FOOTHILLS...

CITY           SKY/WX    TMP DP  RH WIND       PRES   REMARKS
COLO. SPRINGS  CLOUDY    56  48  74 W3        30.37R
A. F. ACADEMY  CLOUDY    53  47  82 CALM      30.37R
SCHRIEVER AFB  CLOUDY    54  46  73 W5        30.37R
CHEYENNE MTN   CLOUDY    51  47  87 S5        30.34R
ELLICOTT       CLOUDY   N/A N/A N/A W6        30.35R
FALCON           N/A     53  46  76 CALM      30.40R
FORT CARSON    CLOUDY    56  49  78 CALM      30.35R
LIMON          FAIR      51  42  71 CALM      30.33R
MONUMENT HILL  CLOUDY    46  45  93 CALM      30.40R
CANON CITY     CLOUDY    57  54  88 CALM      30.34R
WALSENBURG     NOT AVBL
TRINIDAD       CLOUDY    61  47  59 NE9       30.32R
$$

COZ042>045-048>051-090-091-240500-
...NORTHEAST COLORADO...

CITY           SKY/WX    TMP DP  RH WIND       PRES   REMARKS
GREELEY ARPT   FAIR      58  48  69 W6        30.31R
AKRON          FAIR      59  44  57 W3        30.29R
BURLINGTON     FAIR      55  51  86 SW7       30.27R
WRAY           FAIR      57  48  72 W3        30.24R
YUMA           FAIR      55  41  58 CALM      30.26R
STERLING       MOCLDY    61  50  67 N7        30.25
HOLYOKE        NOT AVBL
FORT MORGAN    CLOUDY    62  48  61 SW3       30.30R
$$

COZ086-089-092>099-240500-
...SOUTHEAST COLORADO...

CITY           SKY/WX    TMP DP  RH WIND       PRES   REMARKS
PUEBLO         CLOUDY    63  49  60 N6        30.30R
LA JUNTA       CLOUDY    67  45  45 NE9       30.27R
LAMAR          CLOUDY    67  48  50 NE5       30.23R
SPRINGFIELD      N/A     60  48  64 E7        30.27R
$$



USA.gov is the U.S. government's official web portal to all federal, state and local government web resources and services.